"Pseudo-MPEC" for P10PqfN

Created 2019 Jul 16 19:07:10 UT using Find_Orb

Click here for an explanation of pseudo-MPECs

 
 Astrometry: 
     P10PqfN  C2019 07 02^(+%AstrometryD`mJkAs2.F@B6ThV7D1wredacted;%4T^Rxmj[F51
     P10PqfN  C2019 07 02RJ%m=O^^JGHji^clickD1n6U34nArF??kr;%here?X.#p0for'qXF51
     P10PqfN  C2019 07 02K`poLe_[Erp99B:3b+34mSX!0(27Db:explanation;1fZqHYCrLF51

Station data:
(F51) Pan-STARRS 1, Haleakala  (N20.707235 W156.255910)  US/Hawaii.
   Observers N. Primak, A. Schultz, S. Watters, J. Thiel, T. Goggia. Measurer
   PS1 Science Consortium. 1.8-m Ritchey-Chrétien + CCD.

Orbital elements:  P10PqfN
   Perihelion 2019 Feb 23.273678 +/- 128 TT =  6:34:05 (JD 2458537.773678)
Epoch 2019 Jul  2.0 TT = JDT 2458666.5   Earth MOID: 0.2585   AutoNEOCP
M  71.81187665 +/- 80               (J2000 ecliptic)
n   0.55786474 +/- 0.353            Peri.  324.10581 +/- 80
a   1.46144823 +/- 0.616            Node   236.84980 +/- 53
e   0.1513087 +/- 0.285             Incl.   36.76272 +/- 19
P   1.77/645.31d           H 20.4   G  0.15   U 12.0  SR
q 1.24031834 +/- 0.628    Q 1.68257813 +/- 28.5
From 3 observations 2019 July 2 (41.9 min); mean residual 0".05
Residuals in arcseconds: 
190702 F51  .01-  .05-    190702 F51  .01+  .10+    190702 F51  .01-  .05-    

Ephemerides (geocentric):
Date (UTC) HH   RA              Dec         delta   r     elong  mag " sig PA
---- -- -- --  -------------   -----------  ------ ------ -----  --- ---- ---
2019 07 16 19  18 32 23.383   +50 51 58.76  .79818 1.4565 106.2 22.4  31d 138
2019 07 16 20  18 32 18.998   +50 52 06.69  .79838 1.4566 106.1 22.4  31d 139
2019 07 16 21  18 32 14.618   +50 52 14.52  .79859 1.4567 106.1 22.4  31d 139
2019 07 16 22  18 32 10.242   +50 52 22.27  .79880 1.4568 106.1 22.4  31d 139
2019 07 16 23  18 32 05.870   +50 52 29.92  .79900 1.4569 106.1 22.4  31d 139
2019 07 17 00  18 32 01.502   +50 52 37.49  .79921 1.4570 106.1 22.4  31d 139
2019 07 17 01  18 31 57.139   +50 52 44.96  .79941 1.4571 106.1 22.4  31d 139
2019 07 17 02  18 31 52.780   +50 52 52.34  .79962 1.4572 106.1 22.4  31d 139
2019 07 17 03  18 31 48.426   +50 52 59.63  .79982 1.4573 106.1 22.4  31d 139
2019 07 17 04  18 31 44.076   +50 53 06.83  .80003 1.4574 106.1 22.4  31d 139
2019 07 17 05  18 31 39.730   +50 53 13.93  .80024 1.4574 106.1 22.4  31d 139
2019 07 17 06  18 31 35.389   +50 53 20.95  .80044 1.4575 106.1 22.4  31d 139
2019 07 17 07  18 31 31.052   +50 53 27.88  .80065 1.4576 106.1 22.4  31d 139
2019 07 17 08  18 31 26.720   +50 53 34.71  .80085 1.4577 106.1 22.4  31d 139
2019 07 17 09  18 31 22.392   +50 53 41.46  .80106 1.4578 106.1 22.4  31d 139
2019 07 17 10  18 31 18.069   +50 53 48.11  .80126 1.4579 106.1 22.4  31d 139
2019 07 17 11  18 31 13.750   +50 53 54.68  .80147 1.4580 106.0 22.4  31d 139
2019 07 17 12  18 31 09.436   +50 54 01.15  .80167 1.4581 106.0 22.4  31d 139
2019 07 17 13  18 31 05.126   +50 54 07.54  .80188 1.4582 106.0 22.4  32d 139
2019 07 17 14  18 31 00.820   +50 54 13.83  .80209 1.4583 106.0 22.4  32d 139
2019 07 17 15  18 30 56.519   +50 54 20.04  .80229 1.4583 106.0 22.4  32d 139
2019 07 17 16  18 30 52.223   +50 54 26.15  .80250 1.4584 106.0 22.4  32d 139
2019 07 17 17  18 30 47.931   +50 54 32.18  .80270 1.4585 106.0 22.4  32d 139
2019 07 17 18  18 30 43.644   +50 54 38.12  .80291 1.4586 106.0 22.4  32d 139
2019 07 17 19  18 30 39.361   +50 54 43.96  .80311 1.4587 106.0 22.4  32d 139
2019 07 17 20  18 30 35.083   +50 54 49.72  .80332 1.4588 106.0 22.4  32d 139
2019 07 17 21  18 30 30.810   +50 54 55.39  .80352 1.4589 106.0 22.4  32d 139
2019 07 17 22  18 30 26.541   +50 55 00.97  .80373 1.4590 106.0 22.4  32d 139
2019 07 17 23  18 30 22.276   +50 55 06.46  .80394 1.4591 106.0 22.4  32d 139
2019 07 18 00  18 30 18.017   +50 55 11.86  .80414 1.4591 106.0 22.4  32d 139
2019 07 18 01  18 30 13.761   +50 55 17.17  .80435 1.4592 106.0 22.4  32d 139
2019 07 18 02  18 30 09.511   +50 55 22.40  .80455 1.4593 106.0 22.4  32d 139
2019 07 18 03  18 30 05.265   +50 55 27.53  .80476 1.4594 105.9 22.4  32d 139
2019 07 18 04  18 30 01.024   +50 55 32.58  .80496 1.4595 105.9 22.4  32d 139
2019 07 18 05  18 29 56.787   +50 55 37.54  .80517 1.4596 105.9 22.4  32d 139
2019 07 18 06  18 29 52.555   +50 55 42.41  .80537 1.4597 105.9 22.4  32d 139
2019 07 18 07  18 29 48.328   +50 55 47.19  .80558 1.4598 105.9 22.4  32d 139
2019 07 18 08  18 29 44.105   +50 55 51.88  .80578 1.4599 105.9 22.4  32d 139
2019 07 18 09  18 29 39.887   +50 55 56.49  .80599 1.4600 105.9 22.4  32d 139
2019 07 18 10  18 29 35.674   +50 56 01.00  .80619 1.4600 105.9 22.4  32d 139
2019 07 18 11  18 29 31.465   +50 56 05.43  .80640 1.4601 105.9 22.4  32d 139
2019 07 18 12  18 29 27.261   +50 56 09.78  .80661 1.4602 105.9 22.4  33d 139
2019 07 18 13  18 29 23.062   +50 56 14.03  .80681 1.4603 105.9 22.4  33d 139
2019 07 18 14  18 29 18.868   +50 56 18.20  .80702 1.4604 105.9 22.4  33d 139
2019 07 18 15  18 29 14.678   +50 56 22.28  .80722 1.4605 105.9 22.4  33d 139
2019 07 18 16  18 29 10.493   +50 56 26.27  .80743 1.4606 105.9 22.4  33d 139
2019 07 18 17  18 29 06.313   +50 56 30.17  .80763 1.4607 105.9 22.4  33d 139
2019 07 18 18  18 29 02.137   +50 56 33.99  .80784 1.4608 105.8 22.4  33d 139